BEIDOU 20

Last updated on Sun Feb 19 2023 00:02:47 GMT+0000 (Greenwich Mean Time)

1 40938U 15053A 23049.52315154 -.00000080 00000+0 00000+0 0 9999 2 40938 51.1152 273.0334 0043365 192.9381 326.5910 1.00282289 27172
UTC large
Height (km)
Speed (km/s)
/
Latitude / Longitude
Inclination (degrees)
Orbital Period (minutes)
Azimuth
Elevation
Range (km)
Doppler Factor

Next 0 passes for location: London (51.5072 / 0.1276)

Sorry there are no passes over London.